• In Uzbekistan
  • List of Countries
  • For 7 days
  • Water Temperature
  • Satellite Maps
  • Weather Map
  • Weather Widgets
  • user-avatar
    Login

    Hourly Weather Szentendre

    Today, 13 December, Wednesday

    Time Temperature Precipitation Wind Pressure Humidity
    00:00 +5°C° 0.5 mm 4 mps 748 mmHg 76%
    01:00 +3°C° 0 mm 6 mps 749 mmHg 73%
    02:00 +3°C° 0.3 mm 5 mps 749 mmHg 72%
    03:00 +3°C° 0.3 mm 5 mps 749 mmHg 72%
    04:00 +3°C° 0.3 mm 4 mps 749 mmHg 71%
    05:00 +3°C° 0.1 mm 4 mps 749 mmHg 72%
    06:00 +3°C° 0.1 mm 4 mps 749 mmHg 74%
    07:00 +3°C° 0.1 mm 3 mps 750 mmHg 75%
    08:00 +3°C° 0 mm 3 mps 750 mmHg 74%
    09:00 +3°C° 0 mm 3 mps 750 mmHg 72%
    10:00 +3°C° 0 mm 3 mps 750 mmHg 71%
    11:00 +4°C° 0 mm 3 mps 750 mmHg 69%
    12:00 +5°C° 0 mm 2 mps 750 mmHg 67%
    13:00 +5°C° 0 mm 2 mps 749 mmHg 64%
    14:00 +5°C° 0 mm 2 mps 749 mmHg 67%
    15:00 +5°C° 0 mm 1 mps 749 mmHg 70%
    16:00 +4°C° 0 mm 1 mps 749 mmHg 72%
    17:00 +4°C° 0 mm 1 mps 748 mmHg 73%
    18:00 +3°C° 0 mm 1 mps 748 mmHg 75%
    19:00 +3°C° 0 mm 1 mps 748 mmHg 76%
    20:00 +3°C° 0 mm 1 mps 747 mmHg 77%
    21:00 +3°C° 0 mm 1 mps 747 mmHg 78%
    22:00 +2°C° 0 mm 1 mps 746 mmHg 78%
    23:00 +1°C° 0 mm 2 mps 746 mmHg 80%

    Tomorrow, 14 December, Thursday

    Time Temperature Precipitation Wind Pressure Humidity
    00:00 +1°C° 0 mm 2 mps 745 mmHg 81%
    01:00 0°C° 0 mm 3 mps 744 mmHg 82%
    02:00 0°C° 0 mm 3 mps 743 mmHg 84%
    03:00 -1°C° 0 mm 4 mps 743 mmHg 86%
    04:00 0°C° 0 mm 4 mps 742 mmHg 89%
    05:00 0°C° 0 mm 4 mps 742 mmHg 88%
    06:00 +1°C° 0 mm 4 mps 741 mmHg 88%
    07:00 +1°C° 0 mm 4 mps 741 mmHg 87%
    08:00 +3°C° 0 mm 4 mps 741 mmHg 84%
    09:00 +4°C° 0 mm 4 mps 741 mmHg 82%
    10:00 +4°C° 0 mm 4 mps 741 mmHg 79%
    11:00 +5°C° 0.1 mm 4 mps 741 mmHg 79%
    12:00 +5°C° 0.1 mm 4 mps 741 mmHg 79%
    13:00 +6°C° 0.1 mm 4 mps 741 mmHg 79%
    14:00 +5°C° 0.1 mm 4 mps 742 mmHg 75%
    15:00 +5°C° 0.1 mm 3 mps 742 mmHg 72%
    16:00 +5°C° 0.1 mm 3 mps 742 mmHg 69%
    17:00 +5°C° 0 mm 2 mps 742 mmHg 67%
    18:00 +5°C° 0 mm 2 mps 743 mmHg 64%
    19:00 +6°C° 0 mm 1 mps 743 mmHg 62%
    20:00 +4°C° 0.2 mm 2 mps 743 mmHg 65%
    21:00 +4°C° 0.2 mm 2 mps 743 mmHg 67%
    22:00 +4°C° 0.2 mm 2 mps 743 mmHg 70%
    23:00 +3°C° 0.2 mm 3 mps 742 mmHg 73%

    Day after tomorrow, 15 December, Friday

    Time Temperature Precipitation Wind Pressure Humidity
    00:00 +3°C° 0.2 mm 3 mps 741 mmHg 77%
    01:00 +1°C° 0.2 mm 4 mps 740 mmHg 80%
    02:00 +3°C° 0.1 mm 4 mps 739 mmHg 83%
    03:00 +3°C° 0.1 mm 4 mps 739 mmHg 85%
    04:00 +3°C° 0.1 mm 4 mps 738 mmHg 87%
    05:00 +3°C° 0.1 mm 4 mps 738 mmHg 89%
    06:00 +4°C° 0.1 mm 3 mps 737 mmHg 91%
    07:00 +5°C° 0.1 mm 2 mps 737 mmHg 93%
    08:00 +5°C° 0.4 mm 2 mps 737 mmHg 93%
    09:00 +6°C° 0.4 mm 2 mps 737 mmHg 92%
    10:00 +7°C° 0.4 mm 2 mps 738 mmHg 92%
    11:00 +5°C° 0.6 mm 3 mps 738 mmHg 90%
    12:00 +5°C° 0.6 mm 3 mps 738 mmHg 88%
    13:00 +5°C° 0.6 mm 3 mps 738 mmHg 86%
    14:00 +4°C° 0.1 mm 3 mps 738 mmHg 84%
    15:00 +5°C° 0.1 mm 2 mps 738 mmHg 83%
    16:00 +5°C° 0.1 mm 2 mps 738 mmHg 82%
    17:00 +6°C° 0.5 mm 1 mps 738 mmHg 83%
    18:00 +5°C° 0.5 mm 1 mps 738 mmHg 83%
    19:00 +5°C° 0.5 mm 1 mps 738 mmHg 84%
    20:00 +4°C° 1.4 mm 2 mps 737 mmHg 83%
    21:00 +4°C° 1.4 mm 2 mps 737 mmHg 83%
    22:00 +3°C° 1.4 mm 3 mps 736 mmHg 83%
    23:00 +2°C° 1.3 mm 3 mps 736 mmHg 84%

    16 December, Saturday

    Time Temperature Precipitation Wind Pressure Humidity
    00:00 +2°C° 1.3 mm 3 mps 736 mmHg 85%
    01:00 +1°C° 1.3 mm 4 mps 736 mmHg 86%
    02:00 +2°C° 0.2 mm 3 mps 736 mmHg 85%
    03:00 +2°C° 0.2 mm 3 mps 736 mmHg 85%
    04:00 +2°C° 0.2 mm 3 mps 736 mmHg 85%
    05:00 +2°C° 0.2 mm 3 mps 737 mmHg 85%
    06:00 +1°C° 0.2 mm 3 mps 737 mmHg 85%
    07:00 +1°C° 0.2 mm 3 mps 738 mmHg 86%
    08:00 +1°C° 0.2 mm 3 mps 739 mmHg 84%
    09:00 +2°C° 0.2 mm 3 mps 739 mmHg 83%
    10:00 +2°C° 0.2 mm 3 mps 740 mmHg 82%
    11:00 +2°C° 0 mm 3 mps 741 mmHg 81%
    12:00 +3°C° 0 mm 4 mps 741 mmHg 79%
    13:00 +3°C° 0 mm 4 mps 741 mmHg 78%
    14:00 +2°C° 0 mm 3 mps 742 mmHg 80%
    15:00 +2°C° 0 mm 3 mps 743 mmHg 82%
    16:00 +1°C° 0 mm 3 mps 743 mmHg 84%
    17:00 +1°C° 0 mm 3 mps 744 mmHg 84%
    18:00 +1°C° 0 mm 3 mps 744 mmHg 84%
    19:00 0°C° 0 mm 3 mps 745 mmHg 84%
    20:00 0°C° 0 mm 3 mps 745 mmHg 83%
    21:00 0°C° 0 mm 3 mps 746 mmHg 83%
    22:00 -1°C° 0 mm 4 mps 746 mmHg 83%
    23:00 -1°C° 0 mm 4 mps 746 mmHg 84%

    17 December, Sunday

    Time Temperature Precipitation Wind Pressure Humidity
    00:00 -1°C° 0 mm 4 mps 746 mmHg 84%
    01:00 -2°C° 0 mm 4 mps 747 mmHg 85%
    02:00 -2°C° 0 mm 4 mps 747 mmHg 85%
    03:00 -2°C° 0 mm 4 mps 747 mmHg 84%
    04:00 -2°C° 0 mm 4 mps 747 mmHg 84%
    05:00 -2°C° 0 mm 4 mps 748 mmHg 84%
    06:00 -1°C° 0 mm 3 mps 748 mmHg 84%
    07:00 -1°C° 0 mm 3 mps 748 mmHg 84%
    08:00 -2°C° 0 mm 4 mps 749 mmHg 81%
    09:00 -1°C° 0 mm 4 mps 749 mmHg 78%
    10:00 0°C° 0 mm 5 mps 750 mmHg 76%
    11:00 0°C° 0 mm 5 mps 750 mmHg 74%
    12:00 +1°C° 0 mm 5 mps 750 mmHg 73%
    13:00 +1°C° 0 mm 5 mps 750 mmHg 72%
    14:00 +1°C° 0 mm 5 mps 750 mmHg 74%
    15:00 0°C° 0 mm 5 mps 751 mmHg 76%
    16:00 -1°C° 0 mm 4 mps 751 mmHg 79%
    17:00 -1°C° 0 mm 4 mps 752 mmHg 80%
    18:00 -1°C° 0 mm 4 mps 752 mmHg 80%
    19:00 -2°C° 0 mm 4 mps 753 mmHg 81%
    20:00 -2°C° 0 mm 4 mps 753 mmHg 82%
    21:00 -1°C° 0 mm 3 mps 754 mmHg 83%
    22:00 -2°C° 0 mm 3 mps 754 mmHg 84%
    23:00 -2°C° 0 mm 3 mps 754 mmHg 84%

    18 December, Monday

    Time Temperature Precipitation Wind Pressure Humidity
    00:00 -2°C° 0 mm 3 mps 755 mmHg 85%
    01:00 -2°C° 0 mm 3 mps 755 mmHg 85%
    02:00 -2°C° 0 mm 3 mps 755 mmHg 84%
    03:00 -2°C° 0 mm 3 mps 755 mmHg 84%
    04:00 -2°C° 0 mm 3 mps 755 mmHg 83%
    05:00 -2°C° 0 mm 3 mps 755 mmHg 83%
    06:00 -2°C° 0 mm 3 mps 756 mmHg 83%
    07:00 -4°C° 0 mm 3 mps 756 mmHg 83%
    08:00 -2°C° 0 mm 3 mps 756 mmHg 80%
    09:00 -1°C° 0 mm 3 mps 756 mmHg 77%
    10:00 0°C° 0 mm 3 mps 756 mmHg 74%
    11:00 0°C° 0 mm 3 mps 756 mmHg 73%
    12:00 0°C° 0 mm 3 mps 755 mmHg 71%
    13:00 +1°C° 0 mm 3 mps 755 mmHg 69%
    14:00 +1°C° 0 mm 2 mps 755 mmHg 74%
    15:00 -1°C° 0 mm 2 mps 755 mmHg 78%
    16:00 +1°C° 0 mm 1 mps 754 mmHg 82%
    17:00 0°C° 0 mm 1 mps 754 mmHg 84%
    18:00 0°C° 0 mm 1 mps 755 mmHg 85%
    19:00 -1°C° 0 mm 0 mps 755 mmHg 87%
    20:00 -1°C° 0 mm 0 mps 755 mmHg 87%
    21:00 -1°C° 0 mm 0 mps 755 mmHg 87%
    22:00 -1°C° 0 mm 0 mps 755 mmHg 87%
    23:00 -1°C° 0 mm 0 mps 755 mmHg 87%
    Show more